| time (UTC) | temp C | wind direction | speed KPH | gust KPH | rain 1hr cm | rain 24hr cm | rain mn cm | humidity % | barometer mb |
| 20260831191021 | 19 | 91 | 3.2 | 4.8 | 0.00 | 0.00 | 0.00 | 46 | 1029.8 |
| 20260831190020 | 18 | 0 | 3.2 | 4.8 | 0.00 | 0.00 | 0.00 | 46 | 1029.8 |
| 20260831185021 | 18 | 347 | 3.2 | 8.0 | 0.00 | 0.00 | 0.00 | 49 | 1030.1 |
| 20260831184021 | 18 | 345 | 8.0 | 9.7 | 0.00 | 0.00 | 0.00 | 52 | 1030.1 |
| 20260831183021 | 18 | 317 | 4.8 | 8.0 | 0.00 | 0.00 | 0.00 | 56 | 1030.3 |
| 20260831182022 | 18 | 234 | 4.8 | 9.7 | 0.00 | 0.00 | 0.00 | 51 | 1030.4 |
| 20260831181022 | 17 | 248 | 9.7 | 12.9 | 0.00 | 0.00 | 0.00 | 54 | 1030.5 |
| 20260831180022 | 15 | 348 | 3.2 | 4.8 | 0.00 | 0.00 | 0.00 | 68 | 1030.9 |
| 20260831175022 | 16 | 332 | 4.8 | 6.4 | 0.00 | 0.00 | 0.00 | 71 | 1031.1 |
| 20260831174022 | 16 | 259 | 4.8 | 4.8 | 0.00 | 0.00 | 0.00 | 67 | 1030.9 |
| 20260831172106 | 17 | 275 | 4.8 | 8.0 | 0.00 | 0.00 | 0.00 | 61 | 1030.7 |
| 20260831171106 | 18 | 316 | 1.6 | 3.2 | 0.00 | 0.00 | 0.00 | 48 | 1030.3 |
| 20260831170106 | 18 | 224 | 8.0 | 9.7 | 0.00 | 0.00 | 0.00 | 49 | 1030.7 |
| 20260831165106 | 17 | 180 | 8.0 | 11.3 | 0.00 | 0.00 | 0.00 | 52 | 1030.6 |
| 20260831164127 | 17 | 170 | 8.0 | 11.3 | 0.00 | 0.00 | 0.00 | 52 | 1030.7 |
| 20260831163107 | 17 | 185 | 11.3 | 12.9 | 0.00 | 0.00 | 0.00 | 51 | 1030.7 |
| 20260831162107 | 17 | 185 | 3.2 | 3.2 | 0.00 | 0.00 | 0.00 | 58 | 1030.6 |
| 20260831161128 | -17 | 186 | 4.8 | 4.8 | 0.00 | 0.00 | 0.00 | 1030.5 | |
| 20260831071518 | 12 | 140 | 12.9 | 14.5 | 0.00 | 0.00 | 0.00 | 79 | 1029.8 |
| 20260831070516 | 11 | 124 | 4.8 | 6.4 | 0.00 | 0.00 | 0.00 | 81 | 1030.3 |
| 20260831065518 | 12 | 109 | 3.2 | 4.8 | 0.00 | 0.00 | 0.00 | 83 | 1030.5 |
| 20260831064519 | 12 | 67 | 6.4 | 8.0 | 0.00 | 0.00 | 0.00 | 83 | 1030.7 |
| 20260831063539 | 12 | 67 | 9.7 | 11.3 | 0.00 | 0.00 | 0.00 | 83 | 1030.9 |
| 20260831062519 | 12 | 51 | 9.7 | 11.3 | 0.00 | 0.00 | 0.00 | 82 | 1031.0 |
| 20260831061517 | 12 | 37 | 9.7 | 11.3 | 0.00 | 0.00 | 0.00 | 81 | 1031.0 |
| 20260831060538 | 12 | 21 | 9.7 | 12.9 | 0.00 | 0.00 | 0.00 | 78 | 1031.0 |
| 20260831055538 | 12 | 2 | 9.7 | 11.3 | 0.00 | 0.00 | 0.00 | 80 | 1031.2 |
| 20260831054518 | 12 | 1 | 4.8 | 6.4 | 0.00 | 0.00 | 0.00 | 81 | 1030.9 |
| 20260831053619 | 12 | 336 | 4.8 | 8.0 | 0.00 | 0.00 | 0.00 | 77 | 1030.4 |
| 20260831052518 | 12 | 288 | 6.4 | 8.0 | 0.00 | 0.00 | 0.00 | 80 | 1030.2 |
| 20260831051519 | 12 | 242 | 6.4 | 8.0 | 0.00 | 0.00 | 0.00 | 80 | 1030.0 |
| 20260831050519 | 12 | 205 | 4.8 | 4.8 | 0.00 | 0.00 | 0.00 | 78 | 1030.2 |
| 20260831045519 | 13 | 217 | 1.6 | 3.2 | 0.00 | 0.00 | 0.00 | 76 | 1030.0 |
| 20260831044519 | 14 | 56 | 8.0 | 11.3 | 0.00 | 0.00 | 0.00 | 68 | 1029.9 |
| 20260831043558 | 13 | 47 | 11.3 | 17.7 | 0.00 | 0.00 | 0.00 | 68 | 1029.9 |
| 20260831042520 | 12 | 32 | 9.7 | 14.5 | 0.00 | 0.00 | 0.00 | 76 | 1029.9 |
| 20260831041701 | 12 | 22 | 12.9 | 17.7 | 0.00 | 0.00 | 0.00 | 80 | 1029.9 |
| 20260831040519 | 12 | 3 | 17.7 | 29.0 | 0.00 | 0.00 | 0.00 | 79 | 1029.9 |
| 20260831035519 | 13 | 358 | 14.5 | 20.9 | 0.00 | 0.00 | 0.00 | 75 | 1029.7 |
| 20260831034520 | 13 | 333 | 9.7 | 14.5 | 0.00 | 0.00 | 0.00 | 73 | 1029.5 |
| 20260831033559 | 13 | 355 | 9.7 | 16.1 | 0.00 | 0.00 | 0.00 | 69 | 1029.4 |
| 20260831032521 | 13 | 331 | 6.4 | 11.3 | 0.00 | 0.00 | 0.00 | 71 | 1029.2 |
| 20260831031516 | 15 | 347 | 4.8 | 9.7 | 0.00 | 0.00 | 0.00 | 64 | 1029.0 |
| 20260831030521 | 15 | 22 | 6.4 | 11.3 | 0.00 | 0.00 | 0.00 | 62 | 1028.7 |
| 20260831025521 | 15 | 29 | 8.0 | 12.9 | 0.00 | 0.00 | 0.00 | 61 | 1028.5 |
| 20260831024541 | 15 | 31 | 9.7 | 14.5 | 0.00 | 0.00 | 0.00 | 61 | 1028.2 |
| 20260831023517 | 15 | 31 | 9.7 | 14.5 | 0.00 | 0.00 | 0.00 | 62 | 1028.2 |
| 20260831022518 | 16 | 26 | 9.7 | 14.5 | 0.00 | 0.00 | 0.00 | 61 | 1028.0 |
| 20260831021518 | 16 | 341 | 6.4 | 11.3 | 0.00 | 0.00 | 0.00 | 59 | 1027.9 |
| 20260831020518 | 15 | 8 | 8.0 | 12.9 | 0.00 | 0.00 | 0.00 | 59 | 1027.8 |
| 20260831015522 | 16 | 49 | 4.8 | 6.4 | 0.00 | 0.00 | 0.00 | 61 | 1027.6 |
| 20260831014522 | 16 | 52 | 1.6 | 4.8 | 0.00 | 0.00 | 0.00 | 58 | 1027.5 |
| 20260831013523 | 17 | 28 | 3.2 | 4.8 | 0.00 | 0.00 | 0.00 | 56 | 1027.4 |
| 20260831012523 | 18 | 358 | 3.2 | 6.4 | 0.00 | 0.00 | 0.00 | 52 | 1027.1 |
| 20260831011523 | 19 | 323 | 4.8 | 8.0 | 0.00 | 0.00 | 0.00 | 50 | 1027.0 |
| 20260831010524 | 20 | 9 | 3.2 | 4.8 | 0.00 | 0.00 | 0.00 | 51 | 1026.8 |
| 20260831005523 | 20 | 70 | 4.8 | 6.4 | 0.00 | 0.00 | 0.00 | 50 | 1026.8 |
| 20260831004519 | 21 | 67 | 4.8 | 8.0 | 0.00 | 0.00 | 0.00 | 47 | 1026.8 |
| 20260831003520 | 21 | 57 | 8.0 | 11.3 | 0.00 | 0.00 | 0.00 | 44 | 1026.8 |
| 20260831002520 | 21 | 11 | 8.0 | 12.9 | 0.00 | 0.00 | 0.00 | 42 | 1026.8 |
| 20260831001540 | 22 | 24 | 8.0 | 12.9 | 0.00 | 0.00 | 0.00 | 41 | 1026.9 |
| 20260831000541 | 22 | 345 | 12.9 | 16.1 | 0.00 | 0.00 | 0.00 | 40 | 1026.7 |
| 20260830235517 | 22 | 11 | 12.9 | 19.3 | 0.00 | 0.00 | 0.00 | 40 | 1026.7 |
| 20260830234520 | 22 | 318 | 9.7 | 14.5 | 0.00 | 0.00 | 0.00 | 41 | 1026.8 |
| 20260830233521 | 22 | 240 | 9.7 | 14.5 | 0.00 | 0.00 | 0.00 | 32 | 1026.7 |
| 20260830232518 | 23 | 225 | 11.3 | 16.1 | 0.00 | 0.00 | 0.00 | 31 | 1026.5 |
| 20260830231521 | 23 | 239 | 11.3 | 16.1 | 0.00 | 0.00 | 0.00 | 31 | 1026.5 |
| 20260830230559 | 23 | 243 | 11.3 | 16.1 | 0.00 | 0.00 | 0.00 | 34 | 1026.6 |
| 20260830225541 | 23 | 270 | 8.0 | 11.3 | 0.00 | 0.00 | 0.00 | 32 | 1026.6 |
| 20260830224521 | 23 | 269 | 9.7 | 16.1 | 0.00 | 0.00 | 0.00 | 31 | 1026.6 |
| 20260830223522 | 23 | 266 | 6.4 | 14.5 | 0.00 | 0.00 | 0.00 | 30 | 1026.7 |
| 20260830222519 | 23 | 224 | 9.7 | 20.9 | 0.00 | 0.00 | 0.00 | 32 | 1026.6 |
| 20260830221516 | 23 | 250 | 9.7 | 19.3 | 0.00 | 0.00 | 0.00 | 32 | 1026.6 |
| 20260830220536 | 23 | 250 | 6.4 | 16.1 | 0.00 | 0.00 | 0.00 | 30 | 1026.7 |
| 20260830215517 | 23 | 286 | 9.7 | 19.3 | 0.00 | 0.00 | 0.00 | 30 | 1026.7 |
| 20260830214516 | 23 | 270 | 8.0 | 16.1 | 0.00 | 0.00 | 0.00 | 30 | 1026.7 |
| 20260830213517 | 24 | 290 | 11.3 | 17.7 | 0.00 | 0.00 | 0.00 | 31 | 1026.8 |
| 20260830212518 | 23 | 262 | 12.9 | 22.5 | 0.00 | 0.00 | 0.00 | 33 | 1026.8 |
| 20260830211517 | 23 | 237 | 9.7 | 20.9 | 0.00 | 0.03 | 0.00 | 33 | 1026.7 |
| 20260830210517 | 23 | 230 | 12.9 | 20.9 | 0.00 | 0.03 | 0.00 | 34 | 1026.8 |
| 20260830205518 | 23 | 240 | 14.5 | 29.0 | 0.00 | 0.03 | 0.00 | 34 | 1026.7 |
| 20260830204518 | 22 | 241 | 16.1 | 32.2 | 0.00 | 0.03 | 0.00 | 34 | 1026.7 |
| 20260830203518 | 22 | 239 | 14.5 | 24.1 | 0.00 | 0.03 | 0.00 | 35 | 1026.8 |
| 20260830202518 | 22 | 255 | 12.9 | 20.9 | 0.00 | 0.03 | 0.00 | 35 | 1026.9 |
| 20260830201518 | 22 | 270 | 14.5 | 25.7 | 0.00 | 0.03 | 0.00 | 35 | 1026.9 |
| 20260830200518 | 22 | 259 | 11.3 | 19.3 | 0.00 | 0.03 | 0.00 | 34 | 1027.0 |
| 20260830195519 | 22 | 286 | 6.4 | 12.9 | 0.00 | 0.03 | 0.00 | 37 | 1027.1 |
| 20260830194519 | 22 | 286 | 9.7 | 14.5 | 0.00 | 0.03 | 0.00 | 37 | 1027.2 |
| 20260830193519 | 22 | 324 | 6.4 | 14.5 | 0.00 | 0.03 | 0.00 | 36 | 1027.3 |
| 20260830192519 | 22 | 283 | 9.7 | 16.1 | 0.00 | 0.03 | 0.00 | 36 | 1027.4 |